AC5JC-1 Weather Reports


Display with metric or nautical units.
time (UTC)temp
F
wind
direction
speed
MPH
gust
MPH
rain 1hr
in
rain 24hr
in
rain mn
in
humidity
%
barometer
mb
20260903152108 83 178 2.0 3.0 0.00 0.00 0.00 77 1014.1
20260903151549 84 181 1.0 2.0 0.00 0.00 0.00 76 1014.2
20260903151034 85 165 2.0 5.0 0.00 0.00 0.00 75 1014.2
20260903150534 85 180 1.0 2.0 0.00 0.00 0.00 74 1014.1
20260903150034 84 193 2.0 6.0 0.00 0.00 0.00 74 1014.0
20260903145533 84 180 1.0 2.0 0.00 0.00 0.00 75 1014.2
20260903145033 84 162 1.0 2.0 0.00 0.00 0.00 76 1014.1
20260903144534 83 186 1.0 2.0 0.00 0.00 0.00 77 1014.0
20260903144034 83 189 1.0 3.0 0.00 0.00 0.00 77 1014.2
20260903143534 82 177 1.0 2.0 0.00 0.00 0.00 78 1014.3
20260903143035 82 156 2.0 8.0 0.00 0.00 0.00 78 1014.1
20260903142525 81 168 0.0 1.0 0.00 0.00 0.00 80 1014.1
20260903142108 81 174 1.0 5.0 0.00 0.00 0.00 79 1014.2
20260903141549 82 146 1.0 5.0 0.00 0.00 0.00 79 1014.2
20260903141033 82 176 1.0 2.0 0.00 0.00 0.00 78 1014.2
20260903140534 82 169 1.0 5.0 0.00 0.00 0.00 77 1014.2
20260903140034 82 168 1.0 2.0 0.00 0.00 0.00 77 1014.2
20260903135534 81 181 1.0 2.0 0.00 0.00 0.00 78 1014.1
20260903135034 81 188 1.0 2.0 0.00 0.00 0.00 78 1014.1
20260903134535 81 155 1.0 2.0 0.00 0.00 0.00 78 1014.0
20260903134034 81 182 1.0 2.0 0.00 0.00 0.00 78 1014.0
20260903133554 81 174 1.0 2.0 0.00 0.00 0.00 79 1014.1
20260903133035 81 173 1.0 1.0 0.00 0.00 0.00 79 1014.1
20260903132533 80 175 0.0 1.0 0.00 0.00 0.00 80 1014.0
20260903132041 80 167 1.0 1.0 0.00 0.00 0.00 81 1014.0
20260903131604 78 0.0 0.0 0.00 0.00 0.00 85 1014.3
20260903131034 76 166 0.0 1.0 0.00 0.00 0.00 88 1014.2
20260903130534 76 0.0 0.0 0.00 0.00 0.00 88 1014.2
20260903130156 76 0.0 0.0 0.00 0.00 0.00 88 1014.0
20260903125534 76 0.0 0.0 0.00 0.00 0.00 88 1014.1
20260903125114 76 168 0.0 1.0 0.00 0.00 0.00 87 1014.1
20260903124534 76 0.0 0.0 0.00 0.00 0.00 88 1014.0
20260903124034 76 177 0.0 1.0 0.00 0.00 0.00 88 1014.0
20260903123534 76 187 0.0 1.0 0.00 0.00 0.00 88 1014.0
20260903123034 76 0.0 0.0 0.00 0.00 0.00 88 1013.9
20260903122533 75 168 0.0 1.0 0.00 0.00 0.00 88 1014.0
20260903122034 75 167 0.0 1.0 0.00 0.00 0.00 88 1013.9
20260903121534 75 173 0.0 1.0 0.00 0.00 0.00 88 1014.0
20260903121033 75 0.0 0.0 0.00 0.00 0.00 88 1013.9
20260903120534 75 163 0.0 1.0 0.00 0.00 0.00 88 1013.9
20260903120022 75 158 0.0 1.0 0.00 0.00 0.00 88 1013.8
20260903115604 75 160 0.0 1.0 0.00 0.00 0.00 88 1013.7
20260903115044 75 151 0.0 2.0 0.00 0.00 0.00 88 1013.7
20260903114534 75 172 0.0 1.0 0.00 0.00 0.00 88 1013.6
20260903114034 75 160 0.0 1.0 0.00 0.00 0.00 88 1013.6
20260903113534 75 164 0.0 1.0 0.00 0.00 0.00 89 1013.7
20260903113034 75 155 0.0 1.0 0.00 0.00 0.00 89 1013.6
20260903112554 75 142 0.0 2.0 0.00 0.00 0.00 89 1013.6
20260903112034 75 149 0.0 1.0 0.00 0.00 0.00 89 1013.5
20260903111554 75 143 0.0 1.0 0.00 0.00 0.00 89 1013.6
20260903111034 75 0.0 0.0 0.00 0.00 0.00 89 1013.6
20260903110554 75 156 0.0 1.0 0.00 0.00 0.00 88 1013.5
20260903110054 75 0.0 0.0 0.00 0.00 0.00 88 1013.4
20260903105534 75 153 0.0 1.0 0.00 0.00 0.00 88 1013.3
20260903105034 75 155 0.0 1.0 0.00 0.00 0.00 87 1013.3
20260903104534 75 149 0.0 2.0 0.00 0.00 0.00 87 1013.3
20260903104034 75 147 1.0 2.0 0.00 0.00 0.00 87 1013.3
20260903103534 75 134 1.0 2.0 0.00 0.00 0.00 87 1013.3
20260903103055 75 151 0.0 1.0 0.00 0.00 0.00 86 1013.4
20260903102525 75 154 1.0 1.0 0.00 0.00 0.00 86 1013.4
20260903102108 75 146 1.0 3.0 0.00 0.00 0.00 86 1013.2
20260903101609 75 129 0.0 1.0 0.00 0.00 0.00 86 1013.4
20260903100534 75 147 0.0 1.0 0.00 0.00 0.00 87 1013.5
20260903100034 75 143 0.0 1.0 0.00 0.00 0.00 87 1013.5
20260903095620 75 0.0 0.0 0.00 0.00 0.00 87 1013.6
20260903095100 75 0.0 0.0 0.00 0.00 0.00 87 1013.5
20260903094602 75 0.0 0.0 0.00 0.00 0.00 87 1013.5
20260903094034 75 0.0 0.0 0.00 0.00 0.00 87 1013.4
20260903093534 75 165 0.0 1.0 0.00 0.00 0.00 87 1013.5
20260903093034 75 0.0 0.0 0.00 0.00 0.00 87 1013.4
20260903092545 75 0.0 0.0 0.00 0.00 0.00 87 1013.5
20260903092109 75 0.0 0.0 0.00 0.00 0.00 87 1013.5
20260903091549 75 165 0.0 1.0 0.00 0.00 0.00 87 1013.5
20260903091033 75 0.0 0.0 0.00 0.00 0.00 86 1013.5
20260903090533 75 0.0 0.0 0.00 0.00 0.00 86 1013.5
20260903090035 75 0.0 0.0 0.00 0.00 0.00 86 1013.4
20260903085533 75 0.0 0.0 0.00 0.00 0.00 86 1013.6
20260903085136 75 0.0 0.0 0.00 0.00 0.00 85 1013.7
20260903084557 75 0.0 0.0 0.00 0.00 0.00 85 1013.5
20260903084034 75 0.0 0.0 0.00 0.00 0.00 85 1013.6
20260903083533 76 0.0 0.0 0.00 0.00 0.00 85 1013.6
20260903083034 76 0.0 0.0 0.00 0.00 0.00 84 1013.6
20260903082554 76 0.0 0.0 0.00 0.00 0.00 84 1013.4
20260903082034 76 0.0 0.0 0.00 0.00 0.00 83 1013.5
20260903081534 77 0.0 0.0 0.00 0.00 0.00 83 1013.4
20260903081034 76 165 0.0 1.0 0.00 0.00 0.00 83 1013.5
20260903080533 76 0.0 0.0 0.00 0.00 0.00 83 1013.5
20260903080033 77 167 0.0 1.0 0.00 0.00 0.00 83 1013.5
20260903075613 77 0.0 0.0 0.00 0.00 0.00 82 1013.4
20260903075116 77 0.0 0.0 0.00 0.00 0.00 82 1013.4
20260903074616 77 0.0 0.0 0.00 0.00 0.00 82 1013.4
20260903074034 77 0.0 0.0 0.00 0.00 0.00 82 1013.4
20260903073533 77 0.0 0.0 0.00 0.00 0.00 81 1013.5
20260903073034 77 0.0 0.0 0.00 0.00 0.00 80 1013.5
20260903072525 78 0.0 0.0 0.00 0.00 0.00 79 1013.5
20260903072108 78 0.0 0.0 0.00 0.00 0.00 79 1013.5
20260903071549 78 0.0 0.0 0.00 0.00 0.00 79 1013.7
20260903071033 79 0.0 0.0 0.00 0.00 0.00 78 1013.8
20260903070525 79 173 1.0 3.0 0.00 0.00 0.00 78 1013.6
20260903070129 79 164 0.0 2.0 0.00 0.00 0.00 78 1013.6
20260903065548 79 165 0.0 1.0 0.00 0.00 0.00 77 1013.6
20260903065034 79 173 0.0 1.0 0.00 0.00 0.00 77 1013.8
20260903064612 80 159 0.0 1.0 0.00 0.00 0.00 77 1013.8
20260903064053 80 163 1.0 2.0 0.00 0.00 0.00 76 1013.9
20260903063533 80 167 0.0 1.0 0.00 0.00 0.00 76 1013.9
20260903063030 80 162 0.0 1.0 0.00 0.00 0.00 76 1014.0
20260903062613 80 118 0.0 2.0 0.00 0.00 0.00 75 1014.1
20260903062052 80 165 1.0 2.0 0.00 0.00 0.00 74 1014.0
20260903061534 80 173 0.0 1.0 0.00 0.00 0.00 74 1014.1
20260903061116 80 161 0.0 1.0 0.00 0.00 0.00 74 1014.1
20260903060556 80 155 1.0 5.0 0.00 0.00 0.00 74 1014.1
20260903060035 80 181 1.0 2.0 0.00 0.00 0.00 74 1014.0
20260903055620 80 153 0.0 1.0 0.00 0.00 0.00 74 1014.1
20260903055100 81 0.0 0.0 0.00 0.00 0.00 73 1014.0
20260903054534 81 152 0.0 1.0 0.00 0.00 0.00 73 1014.0
20260903054108 81 146 1.0 3.0 0.00 0.00 0.00 73 1014.0
20260903053608 81 0.0 0.0 0.00 0.00 0.00 73 1014.1
20260903053030 81 164 0.0 1.0 0.00 0.00 0.00 72 1014.1
20260903052612 82 164 0.0 1.0 0.00 0.00 0.00 72 1014.1
20260903052113 82 139 0.0 1.0 0.00 0.00 0.00 71 1014.1
20260903051534 82 163 0.0 1.0 0.00 0.00 0.00 71 1014.0
20260903051117 82 172 0.0 1.0 0.00 0.00 0.00 70 1014.0
20260903050617 83 165 0.0 1.0 0.00 0.00 0.00 70 1013.9
20260903050037 83 169 0.0 1.0 0.00 0.00 0.00 69 1013.9
20260903045620 83 178 1.0 1.0 0.00 0.00 0.00 69 1013.9
20260903045100 83 165 1.0 2.0 0.00 0.00 0.00 68 1013.8
20260903044541 83 163 0.0 1.0 0.00 0.00 0.00 69 1013.9
20260903044021 83 176 0.0 2.0 0.00 0.00 0.00 69 1013.8
20260903043625 83 163 0.0 3.0 0.00 0.00 0.00 68 1013.8
20260903043045 84 164 0.0 1.0 0.00 0.00 0.00 68 1013.9
20260903042525 84 152 0.0 1.0 0.00 0.00 0.00 67 1013.8
20260903042109 84 179 1.0 1.0 0.00 0.00 0.00 67 1013.8
20260903041609 84 174 0.0 1.0 0.00 0.00 0.00 66 1013.9
20260903041029 85 172 0.0 1.0 0.00 0.00 0.00 64 1013.9
20260903040613 85 154 1.0 2.0 0.00 0.00 0.00 65 1013.9
20260903040053 85 171 1.0 1.0 0.00 0.00 0.00 63 1013.9
20260903035554 86 175 0.0 1.0 0.00 0.00 0.00 63 1013.8
20260903035054 86 177 1.0 1.0 0.00 0.00 0.00 62 1013.9
20260903034535 86 179 1.0 1.0 0.00 0.00 0.00 61 1013.9
20260903034022 86 176 0.0 1.0 0.00 0.00 0.00 61 1013.8
20260903033605 87 189 1.0 2.0 0.00 0.00 0.00 60 1013.7
20260903033035 87 176 1.0 3.0 0.00 0.00 0.00 60 1013.7
20260903032526 86 61 0.0 2.0 0.00 0.00 0.00 60 1013.7
20260903032130 87 170 0.0 1.0 0.00 0.00 0.00 61 1013.7
20260903031550 87 155 0.0 2.0 0.00 0.00 0.00 60 1013.6
20260903031034 87 173 0.0 1.0 0.00 0.00 0.00 60 1013.6
20260903030534 88 178 0.0 1.0 0.00 0.00 0.00 59 1013.4
20260903030054 88 169 1.0 2.0 0.00 0.00 0.00 58 1013.4
20260903025533 88 175 1.0 2.0 0.00 0.00 0.00 58 1013.4
20260903025117 88 178 1.0 2.0 0.00 0.00 0.00 59 1013.4
20260903024557 87 164 1.0 2.0 0.00 0.00 0.00 60 1013.2
20260903024035 87 181 1.0 3.0 0.00 0.00 0.00 60 1013.3
20260903023534 87 147 0.0 1.0 0.00 0.00 0.00 60 1013.2
20260903023117 88 172 0.0 1.0 0.00 0.00 0.00 59 1013.0
20260903022738 88 120 1.0 5.0 0.00 0.00 0.00 59 1013.1
20260903022034 88 169 0.0 1.0 0.00 0.00 0.00 58 1012.9
20260903021621 88 184 0.0 1.0 0.00 0.00 0.00 58 1012.9
20260903021121 89 179 0.0 1.0 0.00 0.00 0.00 57 1012.8
20260903020534 89 163 0.0 1.0 0.00 0.00 0.00 56 1012.8
20260903020022 89 167 0.0 1.0 0.00 0.00 0.00 57 1012.8
20260903015605 89 152 0.0 1.0 0.00 0.00 0.00 56 1012.7
20260903015045 90 138 0.0 2.0 0.00 0.00 0.00 55 1012.6
20260903014526 90 178 1.0 2.0 0.00 0.00 0.00 55 1012.5
20260903014109 90 153 1.0 1.0 0.00 0.00 0.00 55 1012.5
20260903013552 90 167 0.0 1.0 0.00 0.00 0.00 54 1012.4
20260903013030 91 163 1.0 3.0 0.00 0.00 0.00 54 1012.4
20260903012613 91 172 2.0 9.0 0.00 0.00 0.00 54 1012.4
20260903012054 91 180 1.0 5.0 0.00 0.00 0.00 54 1012.3
20260903011615 92 172 1.0 2.0 0.00 0.00 0.00 53 1012.3
20260903011117 92 157 2.0 5.0 0.00 0.00 0.00 52 1012.1
20260903010557 92 159 1.0 5.0 0.00 0.00 0.00 50 1012.1
20260903010034 92 152 0.0 1.0 0.00 0.00 0.00 49 1012.1
20260903005621 92 162 0.0 2.0 0.00 0.00 0.00 49 1012.1
20260903005141 93 150 0.0 1.0 0.00 0.00 0.00 48 1012.0
20260903004541 93 122 1.0 2.0 0.00 0.00 0.00 48 1012.1
20260903004021 93 154 0.0 1.0 0.00 0.00 0.00 48 1012.1
20260903003605 94 150 0.0 1.0 0.00 0.00 0.00 47 1012.1
20260903003046 94 172 1.0 2.0 0.00 0.00 0.00 46 1012.0
20260903002526 94 165 2.0 3.0 0.00 0.00 0.00 46 1011.9
20260903002109 95 145 1.0 3.0 0.00 0.00 0.00 46 1011.9
20260903001632 95 88 3.0 6.0 0.00 0.00 0.00 45 1011.9
20260903001030 95 141 1.0 2.0 0.00 0.00 0.00 46 1011.9
20260903000613 95 103 2.0 3.0 0.00 0.00 0.00 45 1012.0
20260903000055 95 194 1.0 3.0 0.00 0.00 0.00 45 1012.0
20260902235534 95 164 1.0 3.0 0.00 0.00 0.00 45 1011.9
20260902235117 96 118 2.0 5.0 0.00 0.00 0.00 44 1011.9
20260902234558 96 130 3.0 7.0 0.00 0.00 0.00 43 1012.0
20260902234034 97 137 2.0 3.0 0.00 0.00 0.00 43 1012.1
20260902233621 97 123 2.0 6.0 0.00 0.00 0.00 42 1012.0
20260902233101 98 114 2.0 6.0 0.00 0.00 0.00 42 1011.9
20260902232554 98 121 2.0 6.0 0.00 0.00 0.00 42 1012.0
20260902232022 98 162 2.0 5.0 0.00 0.00 0.00 42 1011.9
20260902231605 98 149 1.0 6.0 0.00 0.00 0.00 41 1011.9
20260902231054 98 171 2.0 5.0 0.00 0.00 0.00 40 1011.9
20260902230526 98 147 1.0 3.0 0.00 0.00 0.00 41 1011.8
20260902230129 98 133 1.0 3.0 0.00 0.00 0.00 42 1011.9
20260902225549 98 151 2.0 5.0 0.00 0.00 0.00 41 1012.0
20260902225030 98 98 3.0 8.0 0.00 0.00 0.00 40 1012.1
20260902224613 99 104 3.0 6.0 0.00 0.00 0.00 40 1011.9
20260902224113 99 143 2.0 5.0 0.00 0.00 0.00 41 1011.9
20260902223534 98 139 1.0 5.0 0.00 0.00 0.00 42 1012.0
20260902223117 98 113 3.0 5.0 0.00 0.00 0.00 42 1012.1
20260902222557 99 116 4.0 8.0 0.00 0.00 0.00 41 1012.0
20260902222035 99 135 3.0 6.0 0.00 0.00 0.00 42 1012.1
20260902221555 98 131 3.0 7.0 0.00 0.00 0.00 43 1012.2
20260902221031 99 139 3.0 8.0 0.00 0.00 0.00 42 1012.1
20260902220613 99 155 1.0 2.0 0.00 0.00 0.00 42 1012.3
20260902220054 98 122 2.0 6.0 0.00 0.00 0.00 43 1012.3
20260902215534 98 169 2.0 6.0 0.00 0.00 0.00 43 1012.3
20260902215030 97 112 4.0 7.0 0.00 0.00 0.00 44 1012.3
20260902214633 99 142 3.0 7.0 0.00 0.00 0.00 43 1012.3
20260902214114 100 143 4.0 8.0 0.00 0.00 0.00 42 1012.3
20260902213534 99 146 1.0 5.0 0.00 0.00 0.00 42 1012.4
20260902213138 99 110 2.0 6.0 0.00 0.00 0.00 43 1012.5
20260902212557 98 22 2.0 6.0 0.00 0.00 0.00 43 1012.6
20260902212034 99 154 3.0 8.0 0.00 0.00 0.00 43 1012.6
20260902211621 98 135 2.0 5.0 0.00 0.00 0.00 43 1012.6
20260902211102 98 92 2.0 5.0 0.00 0.00 0.00 43 1012.7
20260902210541 99 123 3.0 7.0 0.00 0.00 0.00 43 1012.8
20260902210023 99 139 1.0 2.0 0.00 0.00 0.00 43 1012.8
20260902205606 98 150 2.0 5.0 0.00 0.00 0.00 43 1012.9
20260902205045 98 119 2.0 5.0 0.00 0.00 0.00 44 1012.9
20260902204527 98 116 5.0 10.0 0.00 0.00 0.00 43 1012.9
20260902204109 98 133 2.0 5.0 0.00 0.00 0.00 42 1013.1
20260902203549 98 127 3.0 9.0 0.00 0.00 0.00 41 1013.1
20260902203032 99 110 3.0 7.0 0.00 0.00 0.00 41 1013.3
20260902202613 99 111 2.0 3.0 0.00 0.00 0.00 42 1013.2
20260902202053 98 106 2.0 5.0 0.00 0.00 0.00 43 1013.3
20260902201536 98 113 3.0 6.0 0.00 0.00 0.00 43 1013.3
20260902201050 99 159 2.0 5.0 0.00 0.00 0.00 43 1013.5
20260902200613 99 175 1.0 3.0 0.00 0.00 0.00 41 1013.6
20260902200054 99 157 3.0 6.0 0.00 0.00 0.00 42 1013.7
20260902195534 98 161 2.0 6.0 0.00 0.00 0.00 43 1013.7
20260902195117 98 125 2.0 5.0 0.00 0.00 0.00 44 1013.7
20260902194558 99 114 3.0 9.0 0.00 0.00 0.00 43 1013.8
20260902194115 99 193 2.0 5.0 0.00 0.00 0.00 43 1013.9
20260902193534 99 173 1.0 6.0 0.00 0.00 0.00 43 1014.0
20260902193055 99 130 1.0 3.0 0.00 0.00 0.00 44 1014.0
20260902192526 98 151 1.0 2.0 0.00 0.00 0.00 43 1014.3
20260902192109 98 113 3.0 6.0 0.00 0.00 0.00 43 1014.3
20260902191550 99 183 2.0 3.0 0.00 0.00 0.00 43 1014.3
20260902191034 98 107 2.0 6.0 0.00 0.00 0.00 44 1014.4
20260902190534 98 131 2.0 5.0 0.00 0.00 0.00 44 1014.5
20260902190115 98 132 2.0 5.0 0.00 0.00 0.00 45 1014.5
20260902185622 99 128 2.0 5.0 0.00 0.00 0.00 44 1014.7
20260902185101 98 173 2.0 3.0 0.00 0.00 0.00 44 1014.7
20260902184603 97 128 1.0 3.0 0.00 0.00 0.00 45 1014.8
20260902184034 97 151 2.0 6.0 0.00 0.00 0.00 45 1014.9
20260902183621 96 151 3.0 7.0 0.00 0.00 0.00 47 1015.0
20260902183102 97 140 2.0 7.0 0.00 0.00 0.00 45 1015.0
20260902182601 97 185 1.0 2.0 0.00 0.00 0.00 47 1015.3
20260902182022 97 178 1.0 2.0 0.00 0.00 0.00 47 1015.4
20260902181605 96 113 2.0 5.0 0.00 0.00 0.00 46 1015.6
20260902181036 95 114 4.0 9.0 0.00 0.00 0.00 48 1015.6
20260902180526 96 112 2.0 6.0 0.00 0.00 0.00 48 1015.7
20260902180110 97 124 3.0 6.0 0.00 0.00 0.00 47 1015.9
20260902175549 96 156 1.0 5.0 0.00 0.00 0.00 47 1015.8
20260902175030 96 141 2.0 5.0 0.00 0.00 0.00 48 1016.0
20260902174613 96 145 1.0 2.0 0.00 0.00 0.00 47 1015.8
20260902174053 96 128 2.0 3.0 0.00 0.00 0.00 47 1016.0
20260902173534 97 117 1.0 2.0 0.00 0.00 0.00 48 1016.0
20260902173118 96 167 1.0 2.0 0.00 0.00 0.00 47 1016.3
20260902172557 95 192 2.0 3.0 0.00 0.00 0.00 48 1016.2
20260902172035 94 194 2.0 3.0 0.00 0.00 0.00 50 1016.1
20260902171615 95 122 3.0 6.0 0.00 0.00 0.00 50 1016.3
20260902171034 94 152 3.0 6.0 0.00 0.00 0.00 50 1016.2
20260902170527 95 118 1.0 3.0 0.00 0.00 0.00 49 1016.3
20260902170129 94 190 1.0 2.0 0.00 0.00 0.00 49 1016.3
20260902165549 93 143 2.0 5.0 0.00 0.00 0.00 49 1016.5
20260902165034 93 118 1.0 5.0 0.00 0.00 0.00 50 1016.5
20260902164615 93 98 3.0 6.0 0.00 0.00 0.00 50 1016.5
20260902164022 94 137 1.0 2.0 0.00 0.00 0.00 50 1016.6
20260902163605 94 138 2.0 3.0 0.00 0.00 0.00 50 1016.7
20260902163046 94 132 2.0 5.0 0.00 0.00 0.00 49 1016.7
20260902162526 94 177 1.0 1.0 0.00 0.00 0.00 50 1016.8
20260902162109 94 123 0.0 2.0 0.00 0.00 0.00 50 1016.9
20260902161550 93 151 1.0 1.0 0.00 0.00 0.00 51 1016.9
20260902161034 93 181 1.0 3.0 0.00 0.00 0.00 51 1016.7
20260902160534 93 172 1.0 2.0 0.00 0.00 0.00 52 1016.9
20260902160043 93 179 1.0 2.0 0.00 0.00 0.00 53 1016.8
20260902155605 92 177 1.0 1.0 0.00 0.00 0.00 53 1016.8
20260902155045 92 190 1.0 2.0 0.00 0.00 0.00 52 1016.9
20260902154535 91 130 1.0 3.0 0.00 0.00 0.00 55 1016.9
20260902154034 91 173 1.0 2.0 0.00 0.00 0.00 56 1016.8
20260902153534 92 179 1.0 2.0 0.00 0.00 0.00 55 1016.8
20260902153051 91 159 0.0 1.0 0.00 0.00 0.00 57 1016.8
20260902152613 90 175 1.0 2.0 0.00 0.00 0.00 58 1016.8